GFSNIL_850_temp_006.txt.gz
Temp
11 10 10 9 9 8 8 8 7 7 6 5 5 4 4 3 3 2 1 1 1 0
10 10 9 9 8 8 7 7 6 5 5 4 4 3 3 2 2 1 1 0 -0 -1
9 9 8 8 7 7 6 6 5 4 4 3 3 3 2 2 1 0 -0 -1 -1 -1
8 8 7 7 6 6 5 4 4 3 3 3 3 2 2 1 0 -1 -2 -2 -2 -2
7 7 6 6 5 5 4 3 3 3 3 2 2 2 1 -1 -2 -2 -3 -2 -3 -4
6 6 5 5 4 4 3 3 3 2 2 2 1 0 -1 -2 -3 -3 -3 -4 -4 -5
5 5 4 4 4 3 3 2 2 2 1 1 -0 -1 -2 -3 -4 -4 -5 -5 -6 -6
4 4 4 3 3 2 2 1 1 1 1 -0 -2 -3 -4 -4 -5 -5 -6 -6 -6 -6
4 3 3 3 2 1 1 1 1 0 -1 -2 -3 -4 -4 -5 -5 -6 -7 -7 -7 -7
3 3 2 2 1 1 1 0 -0 -1 -2 -3 -3 -4 -5 -5 -6 -7 -7 -7 -7 -7
3 2 1 1 0 0 0 -0 -1 -2 -2 -3 -4 -5 -5 -6 -6 -7 -7 -7 -7 -7
1 1 1 0 0 0 -1 -1 -2 -2 -3 -4 -5 -5 -6 -6 -7 -7 -7 -8 -8 -8
1 0 0 0 -0 -1 -2 -2 -3 -3 -4 -5 -6 -6 -6 -6 -7 -7 -8 -8 -8 -8
-0 -0 -0 -0 -1 -2 -3 -3 -3 -4 -5 -6 -7 -7 -7 -7 -7 -8 -8 -8 -8 -9

GFSNIL_850_temp_009.txt.gz
Temp
11 10 9 9 8 8 8 8 7 7 6 5 5 4 4 4 3 3 2 2 1 -0
10 9 9 8 8 8 7 7 6 6 5 4 4 3 3 3 2 2 1 1 -0 -1
9 9 8 8 7 7 7 6 6 5 4 3 3 3 2 2 1 1 0 -1 -2 -2
8 8 8 7 7 6 6 5 4 4 3 3 2 2 1 1 0 -0 -1 -1 -3 -3
8 7 7 6 6 5 5 4 3 3 2 2 2 1 1 0 -1 -1 -3 -4 -4 -4
7 6 6 5 5 4 4 3 3 2 2 1 1 1 0 -1 -2 -4 -4 -4 -5 -5
6 5 5 4 4 4 3 2 2 1 1 1 0 -0 -1 -3 -4 -4 -5 -5 -6 -6
5 4 4 4 3 3 2 2 1 1 0 0 -0 -1 -3 -4 -5 -5 -5 -6 -6 -7
4 4 3 3 3 2 1 1 0 0 -0 -1 -1 -2 -4 -5 -5 -5 -6 -6 -7 -7
3 3 3 2 1 1 1 0 -0 -0 -1 -2 -2 -3 -5 -5 -6 -6 -6 -7 -7 -7
3 2 2 1 1 0 -0 -0 -1 -1 -2 -3 -3 -5 -6 -6 -6 -6 -7 -7 -8 -8
2 2 1 0 0 -0 -1 -1 -1 -2 -3 -4 -5 -6 -7 -7 -7 -7 -8 -8 -8 -8
1 1 0 -0 -1 -1 -1 -2 -2 -3 -4 -5 -6 -7 -8 -8 -8 -8 -8 -8 -8 -8
0 -0 -1 -1 -1 -2 -2 -2 -3 -5 -5 -6 -7 -8 -9 -9 -8 -9 -8 -8 -9 -9

GFSNIL_850_temp_012.txt.gz
Temp
11 11 10 9 9 8 8 7 7 6 5 5 4 4 3 3 3 3 2 2 1 0
11 10 9 9 8 8 7 7 6 6 5 4 4 3 3 2 2 2 1 1 0 -1
10 9 9 8 7 7 6 6 5 5 4 4 3 2 2 2 1 1 1 -0 -1 -2
9 8 8 7 6 6 6 5 5 4 3 3 3 2 1 1 0 -0 -1 -2 -3 -4
8 7 7 6 6 5 5 4 4 3 2 2 2 1 1 0 -0 -1 -2 -3 -4 -5
7 6 6 5 5 5 4 3 3 2 2 1 1 0 -0 -1 -2 -2 -3 -4 -5 -6
6 5 5 5 4 4 3 2 2 1 1 0 -0 -0 -1 -2 -2 -3 -5 -5 -6 -6
5 5 4 4 3 3 2 2 1 1 0 -0 -1 -1 -2 -3 -4 -5 -5 -6 -6 -7
4 4 3 3 3 2 1 1 0 -0 -1 -1 -1 -2 -3 -5 -6 -6 -6 -7 -7 -7
3 3 2 2 2 1 1 0 -0 -1 -1 -2 -2 -3 -4 -6 -6 -7 -7 -7 -8 -8
3 2 2 1 1 0 -0 -1 -1 -2 -2 -3 -3 -4 -4 -5 -7 -8 -8 -8 -8 -8
2 2 1 1 0 -1 -1 -1 -2 -2 -3 -4 -4 -5 -6 -8 -8 -8 -8 -8 -8 -9
1 1 0 -0 -1 -1 -2 -2 -3 -3 -4 -4 -5 -6 -7 -8 -8 -8 -8 -8 -8 -9
1 -0 -0 -1 -2 -2 -2 -3 -3 -4 -4 -5 -6 -7 -8 -9 -8 -8 -8 -8 -9 -9

GFSNIL_850_temp_018.txt.gz
Temp
12 12 11 11 10 10 9 8 8 7 7 6 5 4 4 3 3 2 2 1 1 -0
11 11 11 10 9 9 8 7 7 6 6 5 4 4 3 2 2 2 1 1 0 -0
11 10 10 9 9 8 7 6 6 5 5 4 3 3 2 2 1 1 1 0 -0 -1
10 10 9 8 7 7 6 6 5 5 4 3 2 2 1 1 1 1 1 0 -1 -2
10 9 8 7 7 6 6 5 5 4 3 2 2 1 1 1 1 0 -0 -1 -2 -3
8 8 7 7 6 5 5 4 4 3 2 2 1 1 1 0 -0 -1 -2 -3 -4 -5
8 7 6 6 5 5 4 4 3 2 1 1 1 0 -0 -0 -1 -2 -3 -4 -5 -5
7 6 6 5 4 4 3 3 2 1 1 1 0 -0 -1 -2 -2 -3 -4 -5 -6 -7
6 5 5 4 3 3 2 1 1 0 0 0 -0 -1 -2 -3 -4 -5 -5 -6 -7 -8
5 4 4 3 2 2 1 1 0 0 -0 -1 -1 -2 -3 -4 -5 -6 -7 -7 -8 -8
4 3 2 2 1 1 0 0 0 -1 -1 -1 -2 -3 -4 -5 -6 -7 -8 -8 -8 -8
3 2 2 1 1 0 0 -0 -1 -1 -2 -2 -3 -4 -4 -5 -7 -8 -8 -8 -9 -9
2 1 1 0 0 -0 -1 -1 -1 -2 -3 -4 -4 -4 -5 -8 -9 -9 -8 -9 -9 -9
1 0 0 -0 -1 -1 -1 -1 -2 -3 -3 -4 -4 -5 -7 -8 -9 -9 -9 -9 -9 -9

GFSNIL_850_temp_021.txt.gz
Temp
12 13 12 12 11 10 10 9 9 8 7 7 6 6 5 4 3 3 2 2 1 1
12 12 12 11 10 10 9 9 8 7 7 6 6 5 4 3 3 2 2 1 1 0
11 11 11 10 10 9 9 8 7 7 6 5 4 4 3 3 2 2 1 1 0 -1
11 10 10 9 9 8 8 7 6 6 5 4 3 3 2 2 1 1 1 -0 -1 -1
10 9 9 8 8 8 7 6 5 5 4 3 3 2 2 1 1 0 -0 -1 -1 -2
9 9 8 8 7 7 6 5 5 4 3 2 2 1 1 0 0 -0 -1 -2 -2 -3
8 8 8 7 6 5 5 4 3 3 2 2 1 1 0 -0 -1 -1 -2 -2 -4 -5
8 7 7 6 5 4 4 3 2 2 1 1 0 0 -0 -1 -1 -2 -3 -4 -5 -6
7 6 6 5 4 3 3 2 2 1 1 0 -0 -1 -1 -2 -2 -3 -5 -6 -6 -7
6 5 4 4 3 2 2 1 1 0 0 -0 -1 -1 -2 -3 -4 -5 -6 -6 -7 -8
5 4 3 2 2 1 1 0 -0 -0 -1 -1 -1 -2 -3 -4 -4 -5 -6 -7 -8 -8
3 3 2 2 1 1 0 -0 -0 -1 -1 -2 -2 -3 -4 -5 -5 -7 -8 -8 -8 -9
2 2 1 1 0 0 -0 -1 -1 -2 -2 -3 -3 -4 -4 -6 -8 -8 -9 -9 -9 -10
1 1 1 0 -0 -1 -1 -1 -2 -2 -3 -3 -4 -5 -5 -6 -9 -9 -9 -9 -9 -10